Location: Newark
(46.1292°N, 1.0086°W)
Time: 00:47:16
(UTC+00:00)

Transit 4A - Pass Details

Date: 17 November 2019
Orbit: 870 x 975 km, 66.8° (Epoch: 05 December)

Event Time Altitude Azimuth Distance (km) Brightness Sun altitude
Exits shadow 04:59:46 - 342° (NNW) 2,758 10.1 -21.9°
Reaches altitude 10° 05:00:26 10° 347° (NNW) 2,585 10.0 -21.8°
Maximum altitude 05:04:34 19° 31° (NNE) 2,002 9.9 -21.1°
Drops below altitude 10° 05:08:37 10° 75° (ENE) 2,539 11.2 -20.4°
Sets 05:11:53 0° 93° (E) 3,464 12.5 -19.8°
